User: anonymous   Login
Location: Nebula Knoll Observatory
(43.6666°N, 71.0000°W)
Time: 23:18:52
(UTC-05:00)
Language:

Cosmos 1782 - Orbit

View from above orbital plane
View from above orbital plane
View from above satellite
View from above satellite

Ground track
Ground track

The orbit data is extracted from the following two-line orbital elements,

1 16986U 86074A   14330.12263004  .00003928  00000-0  28436-3 0  9060
2 16986 082.5071 308.5943 0009678 291.5637 068.4557 15.03715893530308
Epoch (UTC): 26 November 2014 02:56:35
Eccentricity: 0.0009678
inclination: 82.5071°
perigee height: 549 km
apogee height: 562 km
right ascension of ascending node: 308.5943°
argument of perigee: 291.5637°
revolutions per day: 15.03715893
mean anomaly at epoch: 68.4557°
orbit number at epoch: 53030

The dashed part of the orbit path shows where the satellite is in the earth's shadow,  

DLR